Weather History for Pompano Beach, FL

Change the Weather History Date:

Friday, November 30, 2012

  Actual Average Record
Temperature  
Mean Temperature 73 °F -  
Max Temperature 75 °F 78 °F 90 °F (1978)
Min Temperature 71 °F 63 °F 39 °F (1959)
Cooling Degree Days 8    
Growing Degree Days 23 (Base 50)    
Moisture  
Dew Point 60 °F    
Average Humidity 65    
Maximum Humidity 73    
Minimum Humidity 56    
Precipitation  
Precipitation 0.00 in - - ()
Sea Level Pressure  
Sea Level Pressure 30.17 in    
Wind  
Wind Speed 15 mph (ENE)    
Max Wind Speed 21 mph    
Max Gust Speed 26 mph    
Visibility 10 miles    
Events      
Averages and records for this station are not official NWS values.
T = Trace of Precipitation, MM = Missing Value Source: NWS Daily Summary

Daily Weather History Graph

Daily Weather History Graph

Search for Another Location

Airport:

Trip Planner

Search our weather history database for the weather conditions in past years. The results will help you decide how hot, cold, wet, or windy it might be!

Date:

Astronomy

Nov. 30, 2012 Rise Set
Actual Time 6:50 AM EST 5:27 PM EST
Civil Twilight 6:25 AM EST 5:52 PM EST
Nautical Twilight 5:57 AM EST 6:21 PM EST
Astronomical Twilight 5:29 AM EST 6:49 PM EST
Moon 7:20 PM EST (11/30) 8:21 AM EST (11/30)
Length of Visible Light 11h 27m
Length of Day
10h 37m
Waning Gibbous, 96% of the Moon is Illuminated
Nov 30
Waning Gibbous
Dec 6
Last Quarter
Dec 13
New
Dec 20
First Quarter
Dec 28
Full

Hourly Weather History & Observations

Time (EST) Temp. Dew Point Humidity Pressure Visibility Wind Dir Wind Speed Gust Speed Precip Events Conditions
12:53 AM 71.1 °F 59.0 °F 66% 30.18 in 10.0 mi ENE 12.7 mph - N/A   Scattered Clouds
1:53 AM 71.1 °F 57.9 °F 63% 30.18 in 10.0 mi ENE 15.0 mph 21.9 mph N/A   Mostly Cloudy
2:53 AM 71.1 °F 59.0 °F 66% 30.17 in 10.0 mi ENE 15.0 mph 21.9 mph N/A   Scattered Clouds
3:53 AM 72.0 °F 61.0 °F 68% 30.16 in 10.0 mi ENE 17.3 mph 25.3 mph N/A   Mostly Cloudy
4:53 AM 71.1 °F 61.0 °F 70% 30.15 in 10.0 mi ENE 17.3 mph 24.2 mph N/A   Scattered Clouds
5:53 AM 71.1 °F 59.0 °F 66% 30.17 in 10.0 mi ENE 16.1 mph 23.0 mph N/A   Overcast
6:53 AM 71.1 °F 60.1 °F 68% 30.18 in 10.0 mi ENE 18.4 mph 25.3 mph N/A   Mostly Cloudy
7:53 AM 72.0 °F 59.0 °F 64% 30.20 in 10.0 mi ENE 16.1 mph - N/A   Overcast
8:53 AM 73.0 °F 59.0 °F 61% 30.22 in 10.0 mi ENE 20.7 mph 26.5 mph N/A   Overcast
9:53 AM 73.0 °F 59.0 °F 61% 30.23 in 10.0 mi East 18.4 mph 25.3 mph N/A   Mostly Cloudy
10:53 AM 75.9 °F 59.0 °F 56% 30.22 in 10.0 mi ENE 17.3 mph 25.3 mph N/A   Overcast
11:53 AM 73.0 °F 59.0 °F 61% 30.21 in 10.0 mi ENE 17.3 mph 25.3 mph N/A   Scattered Clouds
12:53 PM 73.0 °F 59.0 °F 61% 30.17 in 10.0 mi East 18.4 mph 25.3 mph 0.00 in   Mostly Cloudy
1:53 PM 73.9 °F 59.0 °F 59% 30.14 in 10.0 mi ENE 18.4 mph 24.2 mph N/A   Scattered Clouds
2:53 PM 73.9 °F 57.9 °F 57% 30.14 in 10.0 mi ENE 15.0 mph - N/A   Mostly Cloudy
3:53 PM 73.9 °F 57.9 °F 57% 30.14 in 10.0 mi East 11.5 mph - N/A   Scattered Clouds
4:53 PM 73.0 °F 61.0 °F 66% 30.15 in 10.0 mi ENE 11.5 mph - N/A   Mostly Cloudy
5:53 PM 72.0 °F 62.1 °F 71% 30.15 in 10.0 mi ENE 12.7 mph - N/A   Scattered Clouds
6:53 PM 72.0 °F 62.1 °F 71% 30.15 in 10.0 mi ENE 15.0 mph - N/A   Mostly Cloudy
7:53 PM 72.0 °F 62.1 °F 71% 30.16 in 10.0 mi ENE 13.8 mph 21.9 mph N/A   Overcast
8:53 PM 72.0 °F 62.1 °F 71% 30.17 in 10.0 mi ENE 16.1 mph - N/A   Overcast
9:53 PM 73.0 °F 62.1 °F 68% 30.17 in 10.0 mi ENE 16.1 mph 26.5 mph N/A   Mostly Cloudy
11:53 PM 72.0 °F 63.0 °F 73% 30.16 in 10.0 mi ENE 13.8 mph 21.9 mph N/A   Mostly Cloudy